"datetime","temp","dp","rain_mm","uv","solar","mb","wind_mph","gust_mph","windchill","rh"
"2020-05-28 00:00:00",13.5,10.7,0.0,0.0,0,1033.7,1,2,"",83
"2020-05-28 00:01:00",13.4,10.6,0.0,0.0,0,1033.7,0,0,"",83
"2020-05-28 00:02:00",13.4,10.6,0.0,0.0,0,1033.7,0,0,"",83
"2020-05-28 00:03:00",13.4,10.6,0.0,0.0,0,1033.7,1,2,"",83
"2020-05-28 00:04:00",13.4,10.8,0.0,0.0,0,1033.7,0,1,"",84
"2020-05-28 00:05:00",13.5,10.8,0.0,0.0,0,1033.7,1,2,"",84
"2020-05-28 00:06:00",13.5,10.8,0.0,0.0,0,1033.7,1,2,"",84
"2020-05-28 00:07:00",13.5,10.8,0.0,0.0,0,1033.7,1,2,"",84
"2020-05-28 00:08:00",13.5,10.8,0.0,0.0,0,1033.7,0,1,"",84
"2020-05-28 00:09:00",13.5,10.8,0.0,0.0,0,1033.7,0,1,"",84
"2020-05-28 00:10:00",13.5,10.8,0.0,0.0,0,1033.7,0,1,"",84
"2020-05-28 00:11:00",13.5,10.7,0.0,0.0,0,1033.7,1,2,"",83
"2020-05-28 00:12:00",13.6,10.8,0.0,0.0,0,1033.7,0,1,"",83
"2020-05-28 00:13:00",13.6,10.8,0.0,0.0,0,1033.7,0,0,"",83
"2020-05-28 00:14:00",13.6,10.8,0.0,0.0,0,1033.7,0,1,"",83
"2020-05-28 00:15:00",13.6,10.8,0.0,0.0,0,1033.7,0,1,"",83
"2020-05-28 00:16:00",13.6,10.8,0.0,0.0,0,1033.7,1,1,"",83
"2020-05-28 00:17:00",13.6,10.8,0.0,0.0,0,1033.7,1,1,"",83
"2020-05-28 00:18:00",13.5,10.7,0.0,0.0,0,1033.8,0,1,"",83
"2020-05-28 00:19:00",13.4,10.6,0.0,0.0,0,1033.7,0,1,"",83
"2020-05-28 00:20:00",13.4,10.8,0.0,0.0,0,1033.8,1,1,"",84
"2020-05-28 00:21:00",13.4,10.8,0.0,0.0,0,1033.8,0,1,"",84
"2020-05-28 00:22:00",13.4,10.8,0.0,0.0,0,1033.7,0,1,"",84
"2020-05-28 00:23:00",13.4,10.8,0.0,0.0,0,1033.7,0,1,"",84
"2020-05-28 00:24:00",13.3,10.7,0.0,0.0,0,1033.8,0,1,"",84
"2020-05-28 00:25:00",13.3,10.7,0.0,0.0,0,1033.7,0,1,"",84
"2020-05-28 00:26:00",13.2,10.6,0.0,0.0,0,1033.8,0,0,"",84
"2020-05-28 00:27:00",13.2,10.6,0.0,0.0,0,1033.7,0,1,"",84
"2020-05-28 00:28:00",13.2,10.6,0.0,0.0,0,1033.7,1,2,"",84
"2020-05-28 00:29:00",13.1,10.5,0.0,0.0,0,1033.7,1,2,"",84
"2020-05-28 00:30:00",13.0,10.4,0.0,0.0,0,1033.7,1,1,"",84
"2020-05-28 00:31:00",12.9,10.3,0.0,0.0,0,1033.7,1,2,"",84
"2020-05-28 00:32:00",12.9,10.3,0.0,0.0,0,1033.8,1,1,"",84
"2020-05-28 00:33:00",12.8,10.3,0.0,0.0,0,1033.8,0,1,"",85
"2020-05-28 00:34:00",12.8,10.3,0.0,0.0,0,1033.8,1,1,"",85
"2020-05-28 00:35:00",12.8,10.3,0.0,0.0,0,1033.8,1,1,"",85
"2020-05-28 00:36:00",12.7,10.2,0.0,0.0,0,1033.8,1,1,"",85
"2020-05-28 00:37:00",12.7,10.2,0.0,0.0,0,1033.8,1,1,"",85
"2020-05-28 00:38:00",12.7,10.2,0.0,0.0,0,1033.8,1,2,"",85
"2020-05-28 00:39:00",12.7,10.4,0.0,0.0,0,1033.8,0,1,"",86
"2020-05-28 00:40:00",12.6,10.3,0.0,0.0,0,1033.8,0,1,"",86
"2020-05-28 00:41:00",12.6,10.3,0.0,0.0,0,1033.8,1,1,"",86
"2020-05-28 00:42:00",12.6,10.3,0.0,0.0,0,1033.8,1,1,"",86
"2020-05-28 00:43:00",12.6,10.3,0.0,0.0,0,1033.8,0,1,"",86
"2020-05-28 00:44:00",12.5,10.2,0.0,0.0,0,1033.9,1,1,"",86
"2020-05-28 00:45:00",12.4,10.1,0.0,0.0,0,1033.8,1,1,"",86
"2020-05-28 00:46:00",12.4,10.1,0.0,0.0,0,1033.9,1,1,"",86
"2020-05-28 00:47:00",12.4,10.1,0.0,0.0,0,1033.9,0,1,"",86
"2020-05-28 00:48:00",12.4,10.1,0.0,0.0,0,1033.9,0,1,"",86
"2020-05-28 00:49:00",12.4,10.1,0.0,0.0,0,1033.9,1,1,"",86
"2020-05-28 00:50:00",12.3,10.0,0.0,0.0,0,1033.9,1,1,"",86
"2020-05-28 00:51:00",12.3,10.0,0.0,0.0,0,1033.9,0,1,"",86
"2020-05-28 00:52:00",12.3,10.2,0.0,0.0,0,1033.9,0,1,"",87
"2020-05-28 00:53:00",12.3,10.2,0.0,0.0,0,1033.9,0,1,"",87
"2020-05-28 00:54:00",12.2,10.1,0.0,0.0,0,1033.9,1,1,"",87
"2020-05-28 00:55:00",12.2,10.1,0.0,0.0,0,1033.8,1,2,"",87
"2020-05-28 00:56:00",12.2,10.1,0.0,0.0,0,1033.9,1,1,"",87
"2020-05-28 00:57:00",12.1,10.0,0.0,0.0,0,1033.9,1,1,"",87
"2020-05-28 00:58:00",12.1,10.0,0.0,0.0,0,1033.9,1,1,"",87
"2020-05-28 00:59:00",12.1,10.0,0.0,0.0,0,1033.9,1,1,"",87
"2020-05-28 01:00:00",12.1,10.0,0.0,0.0,0,1033.9,0,1,"",87
"2020-05-28 01:01:00",12.1,10.0,0.0,0.0,0,1033.9,0,1,"",87
"2020-05-28 01:02:00",12.0,10.1,0.0,0.0,0,1033.9,0,1,"",88
"2020-05-28 01:03:00",12.1,10.2,0.0,0.0,0,1033.9,0,1,"",88
"2020-05-28 01:04:00",12.0,10.1,0.0,0.0,0,1033.9,1,1,"",88
"2020-05-28 01:05:00",11.9,10.0,0.0,0.0,0,1033.9,1,1,"",88
"2020-05-28 01:06:00",11.9,10.0,0.0,0.0,0,1033.8,1,2,"",88
"2020-05-28 01:07:00",11.9,10.0,0.0,0.0,0,1033.9,1,2,"",88
"2020-05-28 01:08:00",11.9,10.0,0.0,0.0,0,1033.8,1,2,"",88
"2020-05-28 01:09:00",11.8,9.9,0.0,0.0,0,1033.8,1,2,"",88
"2020-05-28 01:10:00",11.9,10.0,0.0,0.0,0,1033.9,1,2,"",88
"2020-05-28 01:11:00",11.8,9.9,0.0,0.0,0,1033.9,1,1,"",88
"2020-05-28 01:12:00",11.9,10.0,0.0,0.0,0,1033.9,0,1,"",88
"2020-05-28 01:13:00",11.9,10.0,0.0,0.0,0,1033.9,1,1,"",88
"2020-05-28 01:14:00",11.9,10.0,0.0,0.0,0,1033.9,1,2,"",88
"2020-05-28 01:15:00",11.8,9.9,0.0,0.0,0,1033.8,1,2,"",88
"2020-05-28 01:16:00",11.8,9.9,0.0,0.0,0,1033.8,0,1,"",88
"2020-05-28 01:17:00",11.8,9.9,0.0,0.0,0,1033.8,0,1,"",88
"2020-05-28 01:18:00",11.8,9.9,0.0,0.0,0,1033.9,1,1,"",88
"2020-05-28 01:19:00",11.8,9.9,0.0,0.0,0,1033.8,1,1,"",88
"2020-05-28 01:20:00",11.8,10.0,0.0,0.0,0,1033.9,0,1,"",89
"2020-05-28 01:21:00",11.8,10.0,0.0,0.0,0,1033.9,1,1,"",89
"2020-05-28 01:22:00",11.8,10.0,0.0,0.0,0,1033.9,1,1,"",89
"2020-05-28 01:23:00",11.8,10.0,0.0,0.0,0,1033.8,1,1,"",89
"2020-05-28 01:24:00",11.7,9.9,0.0,0.0,0,1033.8,1,1,"",89
"2020-05-28 01:25:00",11.7,9.9,0.0,0.0,0,1033.8,0,1,"",89
"2020-05-28 01:26:00",11.7,9.9,0.0,0.0,0,1033.8,0,1,"",89
"2020-05-28 01:27:00",11.7,9.9,0.0,0.0,0,1033.9,0,0,"",89
"2020-05-28 01:28:00",11.7,9.9,0.0,0.0,0,1033.8,0,1,"",89
"2020-05-28 01:29:00",11.7,9.9,0.0,0.0,0,1033.8,0,2,"",89
"2020-05-28 01:30:00",11.7,9.9,0.0,0.0,0,1033.8,0,1,"",89
"2020-05-28 01:31:00",11.6,9.8,0.0,0.0,0,1033.8,0,2,"",89
"2020-05-28 01:32:00",11.6,9.8,0.0,0.0,0,1033.9,1,1,"",89
"2020-05-28 01:33:00",11.6,9.8,0.0,0.0,0,1033.9,1,1,"",89
"2020-05-28 01:34:00",11.6,9.8,0.0,0.0,0,1033.8,1,2,"",89
"2020-05-28 01:35:00",11.6,9.8,0.0,0.0,0,1033.8,1,1,"",89
"2020-05-28 01:36:00",11.6,9.8,0.0,0.0,0,1033.8,1,2,"",89
"2020-05-28 01:37:00",11.6,9.8,0.0,0.0,0,1033.8,1,2,"",89
"2020-05-28 01:38:00",11.6,9.8,0.0,0.0,0,1033.8,1,2,"",89
"2020-05-28 01:39:00",11.6,9.8,0.0,0.0,0,1033.7,1,2,"",89
"2020-05-28 01:40:00",11.6,9.8,0.0,0.0,0,1033.7,1,2,"",89
"2020-05-28 01:41:00",11.6,9.8,0.0,0.0,0,1033.7,1,2,"",89
"2020-05-28 01:42:00",11.7,9.9,0.0,0.0,0,1033.7,0,1,"",89
"2020-05-28 01:43:00",11.7,10.1,0.0,0.0,0,1033.7,0,1,"",90
"2020-05-28 01:44:00",11.7,9.9,0.0,0.0,0,1033.7,1,1,"",89
"2020-05-28 01:45:00",11.7,9.9,0.0,0.0,0,1033.8,0,1,"",89
"2020-05-28 01:46:00",11.7,9.9,0.0,0.0,0,1033.7,0,1,"",89
"2020-05-28 01:47:00",11.6,9.8,0.0,0.0,0,1033.7,1,2,"",89
"2020-05-28 01:48:00",11.7,9.9,0.0,0.0,0,1033.7,0,1,"",89
"2020-05-28 01:49:00",11.6,9.8,0.0,0.0,0,1033.7,0,1,"",89
"2020-05-28 01:50:00",11.6,10.0,0.0,0.0,0,1033.7,0,1,"",90
"2020-05-28 01:51:00",11.6,10.0,0.0,0.0,0,1033.7,0,1,"",90
"2020-05-28 01:52:00",11.6,10.0,0.0,0.0,0,1033.7,0,1,"",90
"2020-05-28 01:53:00",11.6,10.0,0.0,0.0,0,1033.7,0,0,"",90
"2020-05-28 01:54:00",11.6,10.0,0.0,0.0,0,1033.7,0,1,"",90
"2020-05-28 01:55:00",11.6,10.0,0.0,0.0,0,1033.7,0,1,"",90
"2020-05-28 01:56:00",11.6,10.0,0.0,0.0,0,1033.6,0,1,"",90
"2020-05-28 01:57:00",11.7,10.1,0.0,0.0,0,1033.7,0,1,"",90
"2020-05-28 01:58:00",11.7,10.1,0.0,0.0,0,1033.7,0,1,"",90
"2020-05-28 01:59:00",11.7,10.1,0.0,0.0,0,1033.7,0,1,"",90
"2020-05-28 02:00:00",11.7,10.1,0.0,0.0,0,1033.7,0,1,"",90
"2020-05-28 02:01:00",11.7,10.1,0.0,0.0,0,1033.7,0,1,"",90
"2020-05-28 02:02:00",11.7,10.1,0.0,0.0,0,1033.7,0,0,"",90
"2020-05-28 02:03:00",11.7,10.1,0.0,0.0,0,1033.7,0,0,"",90
"2020-05-28 02:04:00",11.7,10.1,0.0,0.0,0,1033.7,0,1,"",90
"2020-05-28 02:05:00",11.7,10.1,0.0,0.0,0,1033.7,0,1,"",90
"2020-05-28 02:06:00",11.7,10.1,0.0,0.0,0,1033.7,0,1,"",90
"2020-05-28 02:07:00",11.7,10.1,0.0,0.0,0,1033.7,1,2,"",90
"2020-05-28 02:08:00",11.7,10.1,0.0,0.0,0,1033.7,0,1,"",90
"2020-05-28 02:09:00",11.8,10.2,0.0,0.0,0,1033.7,1,2,"",90
"2020-05-28 02:10:00",11.8,10.2,0.0,0.0,0,1033.7,1,1,"",90
"2020-05-28 02:11:00",11.8,10.2,0.0,0.0,0,1033.7,1,1,"",90
"2020-05-28 02:12:00",11.8,10.2,0.0,0.0,0,1033.7,1,1,"",90
"2020-05-28 02:13:00",11.7,10.1,0.0,0.0,0,1033.7,1,1,"",90
"2020-05-28 02:14:00",11.7,10.1,0.0,0.0,0,1033.7,1,1,"",90
"2020-05-28 02:15:00",11.7,10.1,0.0,0.0,0,1033.7,0,1,"",90
"2020-05-28 02:16:00",11.7,10.1,0.0,0.0,0,1033.7,0,1,"",90
"2020-05-28 02:17:00",11.7,10.1,0.0,0.0,0,1033.7,0,1,"",90
"2020-05-28 02:18:00",11.7,10.1,0.0,0.0,0,1033.7,0,1,"",90
"2020-05-28 02:19:00",11.7,10.1,0.0,0.0,0,1033.7,0,0,"",90
"2020-05-28 02:20:00",11.6,10.0,0.0,0.0,0,1033.7,0,0,"",90
"2020-05-28 02:21:00",11.6,10.0,0.0,0.0,0,1033.8,0,0,"",90
"2020-05-28 02:22:00",11.6,10.0,0.0,0.0,0,1033.8,0,0,"",90
"2020-05-28 02:23:00",11.6,10.0,0.0,0.0,0,1033.7,0,1,"",90
"2020-05-28 02:24:00",11.6,10.0,0.0,0.0,0,1033.7,1,1,"",90
"2020-05-28 02:25:00",11.5,9.9,0.0,0.0,0,1033.8,1,1,"",90
"2020-05-28 02:26:00",11.4,9.8,0.0,0.0,0,1033.7,1,1,"",90
"2020-05-28 02:27:00",11.4,9.8,0.0,0.0,0,1033.7,1,1,"",90
"2020-05-28 02:28:00",11.4,9.8,0.0,0.0,0,1033.7,0,1,"",90
"2020-05-28 02:29:00",11.4,9.8,0.0,0.0,0,1033.7,0,1,"",90
"2020-05-28 02:30:00",11.4,9.8,0.0,0.0,0,1033.7,0,1,"",90
"2020-05-28 02:31:00",11.4,9.8,0.0,0.0,0,1033.7,1,1,"",90
"2020-05-28 02:32:00",11.3,9.7,0.0,0.0,0,1033.7,0,1,"",90
"2020-05-28 02:33:00",11.3,9.7,0.0,0.0,0,1033.6,0,1,"",90
"2020-05-28 02:34:00",11.3,9.7,0.0,0.0,0,1033.7,0,1,"",90
"2020-05-28 02:35:00",11.3,9.7,0.0,0.0,0,1033.6,0,1,"",90
"2020-05-28 02:36:00",11.3,9.7,0.0,0.0,0,1033.7,0,1,"",90
"2020-05-28 02:37:00",11.3,9.7,0.0,0.0,0,1033.7,0,1,"",90
"2020-05-28 02:38:00",11.3,9.9,0.0,0.0,0,1033.7,0,1,"",91
"2020-05-28 02:39:00",11.2,9.6,0.0,0.0,0,1033.7,0,1,"",90
"2020-05-28 02:40:00",11.2,9.6,0.0,0.0,0,1033.6,1,1,"",90
"2020-05-28 02:41:00",11.1,9.5,0.0,0.0,0,1033.6,0,1,"",90
"2020-05-28 02:42:00",11.1,9.5,0.0,0.0,0,1033.6,0,1,"",90
"2020-05-28 02:43:00",11.1,9.5,0.0,0.0,0,1033.6,0,1,"",90
"2020-05-28 02:44:00",11.1,9.7,0.0,0.0,0,1033.6,0,1,"",91
"2020-05-28 02:45:00",11.1,9.7,0.0,0.0,0,1033.6,1,1,"",91
"2020-05-28 02:46:00",11.1,9.7,0.0,0.0,0,1033.6,0,1,"",91
"2020-05-28 02:47:00",11.0,9.6,0.0,0.0,0,1033.6,0,1,"",91
"2020-05-28 02:48:00",11.0,9.6,0.0,0.0,0,1033.6,0,1,"",91
"2020-05-28 02:49:00",11.0,9.6,0.0,0.0,0,1033.6,0,1,"",91
"2020-05-28 02:50:00",11.0,9.6,0.0,0.0,0,1033.6,0,1,"",91
"2020-05-28 02:51:00",10.9,9.5,0.0,0.0,0,1033.6,0,1,"",91
"2020-05-28 02:52:00",10.9,9.5,0.0,0.0,0,1033.6,1,1,"",91
"2020-05-28 02:53:00",10.9,9.5,0.0,0.0,0,1033.7,1,1,"",91
"2020-05-28 02:54:00",10.9,9.5,0.0,0.0,0,1033.6,1,1,"",91
"2020-05-28 02:55:00",10.8,9.4,0.0,0.0,0,1033.6,1,1,"",91
"2020-05-28 02:56:00",10.8,9.4,0.0,0.0,0,1033.6,1,1,"",91
"2020-05-28 02:57:00",10.8,9.4,0.0,0.0,0,1033.6,1,1,"",91
"2020-05-28 02:58:00",10.8,9.4,0.0,0.0,0,1033.6,1,1,"",91
"2020-05-28 02:59:00",10.8,9.4,0.0,0.0,0,1033.6,1,1,"",91
"2020-05-28 03:00:00",10.8,9.4,0.0,0.0,0,1033.6,0,1,"",91
"2020-05-28 03:01:00",10.7,9.3,0.0,0.0,0,1033.6,1,1,"",91
"2020-05-28 03:02:00",10.7,9.3,0.0,0.0,0,1033.6,0,1,"",91
"2020-05-28 03:03:00",10.7,9.3,0.0,0.0,0,1033.6,1,1,"",91
"2020-05-28 03:04:00",10.7,9.3,0.0,0.0,0,1033.6,0,1,"",91
"2020-05-28 03:05:00",10.7,9.3,0.0,0.0,0,1033.7,0,1,"",91
"2020-05-28 03:06:00",10.7,9.3,0.0,0.0,0,1033.7,0,1,"",91
"2020-05-28 03:07:00",10.7,9.3,0.0,0.0,0,1033.6,0,0,"",91
"2020-05-28 03:08:00",10.7,9.3,0.0,0.0,0,1033.6,0,1,"",91
"2020-05-28 03:09:00",10.7,9.3,0.0,0.0,0,1033.6,0,1,"",91
"2020-05-28 03:10:00",10.7,9.3,0.0,0.0,0,1033.6,0,1,"",91
"2020-05-28 03:11:00",10.6,9.2,0.0,0.0,0,1033.6,0,1,"",91
"2020-05-28 03:12:00",10.6,9.2,0.0,0.0,0,1033.6,0,1,"",91
"2020-05-28 03:13:00",10.6,9.2,0.0,0.0,0,1033.6,0,1,"",91
"2020-05-28 03:14:00",10.6,9.2,0.0,0.0,0,1033.7,0,1,"",91
"2020-05-28 03:15:00",10.6,9.2,0.0,0.0,0,1033.6,1,1,"",91
"2020-05-28 03:16:00",10.5,9.1,0.0,0.0,0,1033.7,1,1,"",91
"2020-05-28 03:17:00",10.5,9.3,0.0,0.0,0,1033.7,1,1,"",92
"2020-05-28 03:18:00",10.5,9.3,0.0,0.0,0,1033.7,0,1,"",92
"2020-05-28 03:19:00",10.5,9.3,0.0,0.0,0,1033.7,0,1,"",92
"2020-05-28 03:20:00",10.5,9.3,0.0,0.0,0,1033.7,1,1,"",92
"2020-05-28 03:21:00",10.4,9.2,0.0,0.0,0,1033.7,1,2,"",92
"2020-05-28 03:22:00",10.4,9.2,0.0,0.0,0,1033.7,1,1,"",92
"2020-05-28 03:23:00",10.4,9.0,0.0,0.0,0,1033.7,1,1,"",91
"2020-05-28 03:24:00",10.4,9.2,0.0,0.0,0,1033.7,0,1,"",92
"2020-05-28 03:25:00",10.3,8.9,0.0,0.0,0,1033.7,0,1,"",91
"2020-05-28 03:26:00",10.3,9.1,0.0,0.0,0,1033.7,1,2,"",92
"2020-05-28 03:27:00",10.3,8.9,0.0,0.0,0,1033.7,1,1,"",91
"2020-05-28 03:28:00",10.3,8.9,0.0,0.0,0,1033.7,1,2,"",91
"2020-05-28 03:29:00",10.3,9.1,0.0,0.0,0,1033.7,1,2,"",92
"2020-05-28 03:30:00",10.3,9.1,0.0,0.0,0,1033.7,1,1,"",92
"2020-05-28 03:31:00",10.3,9.1,0.0,0.0,0,1033.7,1,1,"",92
"2020-05-28 03:32:00",10.3,9.1,0.0,0.0,0,1033.6,1,1,"",92
"2020-05-28 03:33:00",10.2,9.0,0.0,0.0,0,1033.6,0,1,"",92
"2020-05-28 03:34:00",10.2,9.0,0.0,0.0,0,1033.6,0,1,"",92
"2020-05-28 03:35:00",10.2,9.0,0.0,0.0,0,1033.7,0,1,"",92
"2020-05-28 03:36:00",10.2,9.0,0.0,0.0,0,1033.7,0,1,"",92
"2020-05-28 03:37:00",10.2,9.0,0.0,0.0,0,1033.6,1,1,"",92
"2020-05-28 03:38:00",10.2,9.0,0.0,0.0,0,1033.6,0,1,"",92
"2020-05-28 03:39:00",10.2,9.0,0.0,0.0,0,1033.6,1,2,"",92
"2020-05-28 03:40:00",10.2,9.0,0.0,0.0,0,1033.6,1,1,"",92
"2020-05-28 03:41:00",10.2,9.0,0.0,0.0,0,1033.7,0,1,"",92
"2020-05-28 03:42:00",10.1,8.9,0.0,0.0,0,1033.6,0,1,"",92
"2020-05-28 03:43:00",10.2,9.0,0.0,0.0,0,1033.6,0,1,"",92
"2020-05-28 03:44:00",10.2,9.0,0.0,0.0,0,1033.6,0,1,"",92
"2020-05-28 03:45:00",10.2,9.0,0.0,0.0,0,1033.6,0,1,"",92
"2020-05-28 03:46:00",10.2,9.0,0.0,0.0,0,1033.6,0,1,"",92
"2020-05-28 03:47:00",10.1,8.9,0.0,0.0,0,1033.6,1,1,"",92
"2020-05-28 03:48:00",10.1,8.9,0.0,0.0,0,1033.5,0,1,"",92
"2020-05-28 03:49:00",10.1,8.9,0.0,0.0,0,1033.5,0,1,"",92
"2020-05-28 03:50:00",10.1,8.9,0.0,0.0,0,1033.6,0,1,"",92
"2020-05-28 03:51:00",10.1,8.9,0.0,0.0,0,1033.5,0,1,"",92
"2020-05-28 03:52:00",10.1,8.9,0.0,0.0,0,1033.6,0,1,"",92
"2020-05-28 03:53:00",10.1,8.9,0.0,0.0,0,1033.6,0,1,"",92
"2020-05-28 03:54:00",10.1,8.9,0.0,0.0,0,1033.5,0,1,"",92
"2020-05-28 03:55:00",10.0,8.8,0.0,0.0,0,1033.5,0,1,"",92
"2020-05-28 03:56:00",10.0,8.8,0.0,0.0,0,1033.5,0,1,"",92
"2020-05-28 03:57:00",10.0,8.8,0.0,0.0,0,1033.5,0,1,"",92
"2020-05-28 03:58:00",9.9,8.7,0.0,0.0,0,1033.5,1,1,"",92
"2020-05-28 03:59:00",10.0,8.8,0.0,0.0,0,1033.5,1,1,"",92
"2020-05-28 04:00:00",9.9,8.7,0.0,0.0,0,1033.5,0,1,"",92
"2020-05-28 04:01:00",9.9,8.7,0.0,0.0,0,1033.5,0,1,"",92
"2020-05-28 04:02:00",9.9,8.7,0.0,0.0,0,1033.5,0,1,"",92
"2020-05-28 04:03:00",9.9,8.8,0.0,0.0,0,1033.5,0,1,"",93
"2020-05-28 04:04:00",9.9,8.8,0.0,0.0,0,1033.5,0,1,"",93
"2020-05-28 04:05:00",9.9,8.7,0.0,0.0,0,1033.5,0,1,"",92
"2020-05-28 04:06:00",9.9,8.7,0.0,0.0,0,1033.5,0,1,"",92
"2020-05-28 04:07:00",9.9,8.7,0.0,0.0,0,1033.4,0,1,"",92
"2020-05-28 04:08:00",9.9,8.8,0.0,0.0,0,1033.4,1,1,"",93
"2020-05-28 04:09:00",9.9,8.8,0.0,0.0,0,1033.5,0,1,"",93
"2020-05-28 04:10:00",9.9,8.7,0.0,0.0,0,1033.5,0,1,"",92
"2020-05-28 04:11:00",9.9,8.7,0.0,0.0,0,1033.5,0,1,"",92
"2020-05-28 04:12:00",9.9,8.8,0.0,0.0,0,1033.5,0,1,"",93
"2020-05-28 04:13:00",9.9,8.7,0.0,0.0,0,1033.5,0,1,"",92
"2020-05-28 04:14:00",9.9,8.7,0.0,0.0,0,1033.6,0,1,"",92
"2020-05-28 04:15:00",9.9,8.7,0.0,0.0,0,1033.5,0,1,"",92
"2020-05-28 04:16:00",9.9,8.7,0.0,0.0,0,1033.5,0,1,"",92
"2020-05-28 04:17:00",9.9,8.8,0.0,0.0,0,1033.5,0,1,"",93
"2020-05-28 04:18:00",9.9,8.8,0.0,0.0,0,1033.5,1,1,"",93
"2020-05-28 04:19:00",9.9,8.8,0.0,0.0,0,1033.5,0,1,"",93
"2020-05-28 04:20:00",9.9,8.8,0.0,0.0,0,1033.5,1,1,"",93
"2020-05-28 04:21:00",9.9,8.8,0.0,0.0,0,1033.5,0,1,"",93
"2020-05-28 04:22:00",9.9,8.8,0.0,0.0,0,1033.5,1,1,"",93
"2020-05-28 04:23:00",10.0,8.9,0.0,0.0,0,1033.5,0,2,"",93
"2020-05-28 04:24:00",10.0,8.9,0.0,0.0,0,1033.5,1,2,"",93
"2020-05-28 04:25:00",10.0,8.9,0.0,0.0,0,1033.5,0,1,"",93
"2020-05-28 04:26:00",10.0,8.9,0.0,0.0,0,1033.5,0,1,"",93
"2020-05-28 04:27:00",10.1,9.0,0.0,0.0,0,1033.5,0,1,"",93
"2020-05-28 04:28:00",10.1,9.0,0.0,0.0,0,1033.5,1,1,"",93
"2020-05-28 04:29:00",10.1,9.0,0.0,0.0,0,1033.5,0,1,"",93
"2020-05-28 04:30:00",10.0,8.9,0.0,0.0,0,1033.5,0,1,"",93
"2020-05-28 04:31:00",10.0,8.9,0.0,0.0,0,1033.5,0,1,"",93
"2020-05-28 04:32:00",10.0,8.9,0.0,0.0,0,1033.5,0,0,"",93
"2020-05-28 04:33:00",10.0,8.9,0.0,0.0,0,1033.5,1,1,"",93
"2020-05-28 04:34:00",10.0,8.9,0.0,0.0,0,1033.5,0,1,"",93
"2020-05-28 04:35:00",10.0,8.9,0.0,0.0,0,1033.5,0,1,"",93
"2020-05-28 04:36:00",10.0,8.9,0.0,0.0,0,1033.5,0,1,"",93
"2020-05-28 04:37:00",10.0,8.9,0.0,0.0,0,1033.5,0,1,"",93
"2020-05-28 04:38:00",10.0,8.9,0.0,0.0,0,1033.5,1,1,"",93
"2020-05-28 04:39:00",10.0,8.9,0.0,0.0,0,1033.5,0,1,"",93
"2020-05-28 04:40:00",10.0,8.9,0.0,0.0,0,1033.5,0,1,"",93
"2020-05-28 04:41:00",9.9,8.8,0.0,0.0,0,1033.6,0,1,"",93
"2020-05-28 04:42:00",9.9,8.8,0.0,0.0,0,1033.6,0,1,"",93
"2020-05-28 04:43:00",9.9,8.8,0.0,0.0,0,1033.6,0,1,"",93
"2020-05-28 04:44:00",10.0,8.9,0.0,0.0,0,1033.6,0,1,"",93
"2020-05-28 04:45:00",10.0,8.9,0.0,0.0,0,1033.6,0,1,"",93
"2020-05-28 04:46:00",10.0,8.9,0.0,0.0,0,1033.6,1,1,"",93
"2020-05-28 04:47:00",10.0,8.9,0.0,0.0,0,1033.6,1,1,"",93
"2020-05-28 04:48:00",10.0,8.9,0.0,0.0,0,1033.6,1,1,"",93
"2020-05-28 04:49:00",10.0,8.9,0.0,0.0,0,1033.7,0,1,"",93
"2020-05-28 04:50:00",10.0,8.9,0.0,0.0,0,1033.6,0,1,"",93
"2020-05-28 04:51:00",10.1,9.0,0.0,0.0,0,1033.6,0,1,"",93
"2020-05-28 04:52:00",10.1,9.0,0.0,0.0,0,1033.6,0,1,"",93
"2020-05-28 04:53:00",10.1,9.0,0.0,0.0,0,1033.6,1,2,"",93
"2020-05-28 04:54:00",10.1,9.0,0.0,0.0,0,1033.6,1,2,"",93
"2020-05-28 04:55:00",10.1,9.0,0.0,0.0,0,1033.6,0,1,"",93
"2020-05-28 04:56:00",10.1,9.0,0.0,0.0,0,1033.6,0,1,"",93
"2020-05-28 04:57:00",10.1,9.0,0.0,0.0,0,1033.6,0,1,"",93
"2020-05-28 04:58:00",10.1,9.0,0.0,0.0,0,1033.6,1,1,"",93
"2020-05-28 04:59:00",10.1,9.0,0.0,0.0,0,1033.6,1,2,"",93
"2020-05-28 05:00:00",10.1,9.0,0.0,0.0,5,1033.6,0,1,"",93
"2020-05-28 05:01:00",10.1,9.0,0.0,0.0,5,1033.6,0,1,"",93
"2020-05-28 05:02:00",10.2,9.1,0.0,0.0,5,1033.6,0,1,"",93
"2020-05-28 05:03:00",10.2,9.1,0.0,0.0,5,1033.6,0,1,"",93
"2020-05-28 05:04:00",10.2,9.1,0.0,0.0,5,1033.6,0,1,"",93
"2020-05-28 05:05:00",10.2,9.1,0.0,0.0,5,1033.7,0,1,"",93
"2020-05-28 05:06:00",10.2,9.1,0.0,0.0,5,1033.7,0,1,"",93
"2020-05-28 05:07:00",10.2,9.1,0.0,0.0,5,1033.7,0,1,"",93
"2020-05-28 05:08:00",10.2,9.1,0.0,0.0,7,1033.6,0,0,"",93
"2020-05-28 05:09:00",10.2,9.1,0.0,0.0,7,1033.6,0,0,"",93
"2020-05-28 05:10:00",10.2,9.1,0.0,0.0,7,1033.6,0,1,"",93
"2020-05-28 05:11:00",10.2,9.1,0.0,0.0,7,1033.7,0,1,"",93
"2020-05-28 05:12:00",10.2,9.1,0.0,0.0,7,1033.7,0,1,"",93
"2020-05-28 05:13:00",10.2,9.1,0.0,0.0,9,1033.7,0,1,"",93
"2020-05-28 05:14:00",10.2,9.1,0.0,0.0,9,1033.7,0,1,"",93
"2020-05-28 05:15:00",10.2,9.1,0.0,0.0,9,1033.7,0,1,"",93
"2020-05-28 05:16:00",10.3,9.2,0.0,0.0,9,1033.7,1,2,"",93
"2020-05-28 05:17:00",10.2,9.1,0.0,0.0,11,1033.7,0,1,"",93
"2020-05-28 05:18:00",10.3,9.2,0.0,0.0,11,1033.7,0,1,"",93
"2020-05-28 05:19:00",10.3,9.2,0.0,0.0,11,1033.7,1,1,"",93
"2020-05-28 05:20:00",10.3,9.2,0.0,0.0,11,1033.7,1,3,"",93
"2020-05-28 05:21:00",10.3,9.2,0.0,0.0,11,1033.7,2,3,"",93
"2020-05-28 05:22:00",10.3,9.2,0.0,0.0,11,1033.8,0,2,"",93
"2020-05-28 05:23:00",10.4,9.3,0.0,0.0,11,1033.8,1,2,"",93
"2020-05-28 05:24:00",10.4,9.3,0.0,0.0,11,1033.7,1,2,"",93
"2020-05-28 05:25:00",10.4,9.3,0.0,0.0,12,1033.8,0,1,"",93
"2020-05-28 05:26:00",10.4,9.3,0.0,0.0,12,1033.8,0,2,"",93
"2020-05-28 05:27:00",10.4,9.3,0.0,0.0,12,1033.8,0,2,"",93
"2020-05-28 05:28:00",10.4,9.3,0.0,0.0,12,1033.8,1,2,"",93
"2020-05-28 05:29:00",10.4,9.3,0.0,0.0,12,1033.8,1,2,"",93
"2020-05-28 05:30:00",10.4,9.3,0.0,0.0,14,1033.8,1,2,"",93
"2020-05-28 05:31:00",10.4,9.3,0.0,0.0,14,1033.8,1,3,"",93
"2020-05-28 05:32:00",10.4,9.3,0.0,0.0,0,1033.8,1,2,"",93
"2020-05-28 05:33:00",10.4,9.3,0.0,0.0,14,1033.8,1,1,"",93
"2020-05-28 05:34:00",10.4,9.3,0.0,0.0,14,1033.8,1,2,"",93
"2020-05-28 05:35:00",10.4,9.3,0.0,0.0,16,1033.8,0,1,"",93
"2020-05-28 05:36:00",10.4,9.3,0.0,0.0,16,1033.8,0,1,"",93
"2020-05-28 05:37:00",10.6,9.5,0.0,0.0,0,1033.8,1,2,"",93
"2020-05-28 05:38:00",10.6,9.5,0.0,0.0,0,1033.8,1,3,"",93
"2020-05-28 05:39:00",10.7,9.6,0.0,0.0,0,1033.8,1,2,"",93
"2020-05-28 05:40:00",10.7,9.6,0.0,0.0,0,1033.8,1,1,"",93
"2020-05-28 05:41:00",10.7,9.6,0.0,0.0,5,1033.8,0,1,"",93
"2020-05-28 05:42:00",10.7,9.6,0.0,0.0,18,1033.8,1,2,"",93
"2020-05-28 05:43:00",10.7,9.6,0.0,0.0,18,1033.9,1,2,"",93
"2020-05-28 05:44:00",10.7,9.6,0.0,0.0,18,1033.8,1,2,"",93
"2020-05-28 05:45:00",10.7,9.5,0.0,0.0,18,1033.8,1,2,"",92
"2020-05-28 05:46:00",10.7,9.6,0.0,0.0,18,1033.8,1,3,"",93
"2020-05-28 05:47:00",10.8,9.7,0.0,0.0,19,1033.8,1,2,"",93
"2020-05-28 05:48:00",10.8,9.7,0.0,0.0,19,1033.8,1,1,"",93
"2020-05-28 05:49:00",10.8,9.6,0.0,0.0,19,1033.9,1,1,"",92
"2020-05-28 05:50:00",10.8,9.6,0.0,0.0,19,1033.9,1,2,"",92
"2020-05-28 05:51:00",10.8,9.6,0.0,0.0,19,1033.8,0,2,"",92
"2020-05-28 05:52:00",10.8,9.6,0.0,0.0,19,1033.9,1,2,"",92
"2020-05-28 05:53:00",10.8,9.6,0.0,0.0,19,1033.9,1,3,"",92
"2020-05-28 05:54:00",10.9,9.7,0.0,0.0,21,1033.8,1,2,"",92
"2020-05-28 05:55:00",10.9,9.8,0.0,0.0,21,1033.8,0,1,"",93
"2020-05-28 05:56:00",10.9,9.7,0.0,0.0,21,1033.8,1,2,"",92
"2020-05-28 05:57:00",10.9,9.7,0.0,0.0,21,1033.8,1,2,"",92
"2020-05-28 05:58:00",11.0,9.9,0.0,0.0,23,1033.9,0,1,"",93
"2020-05-28 05:59:00",11.0,9.7,0.0,0.0,25,1033.9,1,2,"",92
"2020-05-28 06:00:00",11.0,9.7,0.0,0.0,25,1033.9,1,2,"",92
"2020-05-28 06:01:00",11.0,9.7,0.0,0.0,26,1033.9,1,2,"",92
"2020-05-28 06:02:00",11.1,9.8,0.0,0.0,26,1033.8,1,4,"",92
"2020-05-28 06:03:00",11.1,9.8,0.0,0.0,28,1033.8,1,1,"",92
"2020-05-28 06:04:00",11.1,9.8,0.0,0.0,28,1033.8,1,2,"",92
"2020-05-28 06:05:00",11.1,9.8,0.0,0.0,28,1033.9,1,2,"",92
"2020-05-28 06:06:00",11.1,9.8,0.0,0.0,30,1033.9,1,2,"",92
"2020-05-28 06:07:00",11.2,9.9,0.0,0.0,30,1033.9,1,2,"",92
"2020-05-28 06:08:00",11.2,9.9,0.0,0.0,30,1033.9,2,5,"",92
"2020-05-28 06:09:00",11.2,9.9,0.0,0.0,32,1033.9,1,2,"",92
"2020-05-28 06:10:00",11.3,10.0,0.0,0.0,32,1033.9,1,2,"",92
"2020-05-28 06:11:00",11.3,10.0,0.0,0.0,32,1034.0,1,2,"",92
"2020-05-28 06:12:00",11.3,10.0,0.0,0.0,33,1034.0,1,1,"",92
"2020-05-28 06:13:00",11.3,10.0,0.0,0.0,33,1034.0,1,2,"",92
"2020-05-28 06:14:00",11.4,10.1,0.0,0.0,33,1033.9,1,3,"",92
"2020-05-28 06:15:00",11.4,10.1,0.0,0.0,33,1034.0,1,2,"",92
"2020-05-28 06:16:00",11.4,10.0,0.0,0.0,35,1033.9,1,2,"",91
"2020-05-28 06:17:00",11.4,10.0,0.0,0.0,35,1034.0,1,2,"",91
"2020-05-28 06:18:00",11.4,10.0,0.0,0.0,35,1034.0,1,2,"",91
"2020-05-28 06:19:00",11.4,10.0,0.0,0.0,35,1033.9,1,3,"",91
"2020-05-28 06:20:00",11.5,10.1,0.0,0.0,35,1034.0,1,3,"",91
"2020-05-28 06:21:00",11.6,10.2,0.0,0.0,35,1034.0,0,1,"",91
"2020-05-28 06:22:00",11.5,10.1,0.0,0.0,35,1034.0,1,2,"",91
"2020-05-28 06:23:00",11.6,10.2,0.0,0.0,35,1034.0,1,2,"",91
"2020-05-28 06:24:00",11.6,10.2,0.0,0.0,37,1034.0,1,2,"",91
"2020-05-28 06:25:00",11.7,10.3,0.0,0.0,37,1034.0,1,2,"",91
"2020-05-28 06:26:00",11.7,10.3,0.0,0.0,39,1034.1,2,3,"",91
"2020-05-28 06:27:00",11.7,10.3,0.0,0.0,37,1034.1,1,2,"",91
"2020-05-28 06:28:00",11.8,10.4,0.0,0.0,37,1034.0,0,1,"",91
"2020-05-28 06:29:00",11.8,10.2,0.0,0.0,37,1034.1,1,2,"",90
"2020-05-28 06:30:00",11.8,10.2,0.0,0.0,37,1034.1,2,4,"",90
"2020-05-28 06:31:00",11.8,10.2,0.0,0.0,39,1034.1,2,4,"",90
"2020-05-28 06:32:00",11.8,10.2,0.0,0.0,39,1034.1,2,3,"",90
"2020-05-28 06:33:00",11.9,10.3,0.0,0.0,42,1034.1,1,2,"",90
"2020-05-28 06:34:00",11.9,10.3,0.0,0.0,42,1034.1,1,2,"",90
"2020-05-28 06:35:00",11.9,10.3,0.0,0.0,42,1034.1,1,2,"",90
"2020-05-28 06:36:00",11.9,10.3,0.0,0.0,44,1034.1,2,3,"",90
"2020-05-28 06:37:00",11.9,10.3,0.0,0.0,42,1034.1,1,2,"",90
"2020-05-28 06:38:00",11.9,10.3,0.0,0.0,44,1034.1,1,2,"",90
"2020-05-28 06:39:00",11.9,10.3,0.0,0.0,47,1034.1,1,3,"",90
"2020-05-28 06:40:00",12.0,10.4,0.0,0.0,49,1034.0,2,6,"",90
"2020-05-28 06:41:00",12.1,10.3,0.0,0.0,51,1034.0,2,5,"",89
"2020-05-28 06:42:00",12.1,10.3,0.0,0.0,49,1034.1,2,3,"",89
"2020-05-28 06:43:00",12.1,10.3,0.0,0.0,53,1034.1,3,4,"",89
"2020-05-28 06:44:00",12.1,10.3,0.0,0.0,56,1034.1,1,2,"",89
"2020-05-28 06:45:00",12.1,10.3,0.0,0.0,63,1034.1,2,3,"",89
"2020-05-28 06:46:00",12.1,10.3,0.0,0.0,54,1034.1,2,3,"",89
"2020-05-28 06:47:00",12.2,10.4,0.0,0.0,54,1034.1,2,5,"",89